Terminal Aerodrome Forecast
Issued by NWS Wakefield, VA

Home | Current Version | Previous Version | Text Only | Print | Product List | Glossary On
Versions: 1 2 3 4 5 6 7 8 9 10 11 12 13 14 15 16 17 18 19 20
000
FTUS41 KAKQ 260500 RRA
TAFECG
TAF
KECG 260552Z 2606/2706 12005KT P6SM BKN250
     FM261000 06004KT P6SM BKN100 OVC150
     FM262100 34006KT P6SM -RA SCT020 OVC040
     FM270300 30009G15KT 4SM -RA BR SCT007 OVC020=

USA.gov is the U.S. government's official web portal to all federal, state and local government web resources and services.